Weather History for KEPH - May, 2013

Change the Weather History Date:

Friday, May 3, 2013

  Actual Average Record
Temperature  
Mean Temperature 66 °F 55 °F  
Max Temperature 78 °F 68 °F 88 °F (1966)
Min Temperature 54 °F 42 °F 32 °F (2001)
Degree Days  
Heating Degree Days 0 10  
Month to date heating degree days 25 32  
Since 1 July heating degree days 5348 5729  
Cooling Degree Days 1 0  
Month to date cooling degree days 1 0  
Year to date cooling degree days 1 2  
Growing Degree Days 16 (Base 50)    
Moisture  
Dew Point 31 °F    
Average Humidity 32    
Maximum Humidity 51    
Minimum Humidity 13    
Precipitation  
Precipitation 0.00 in 0.01 in 0.24 in (1975)
Month to date precipitation 0.00 0.04  
Year to date precipitation 1.52 2.85  
Sea Level Pressure  
Sea Level Pressure 30.22 in    
Wind  
Wind Speed 17 mph (North)    
Max Wind Speed 28 mph    
Max Gust Speed 36 mph    
Visibility 10 miles    
Events      
T = Trace of Precipitation, MM = Missing Value Source: NWS Daily Summary

Daily Weather History Graph

Daily Weather History Graph

Search for Another Location

Airport or City:

Trip Planner

Search our weather history database for the weather conditions in past years. The results will help you decide how hot, cold, wet, or windy it might be!

Date:

Astronomy

May. 03, 2013 Rise Set
Actual Time 5:38 AM PDT 8:12 PM PDT
Civil Twilight 5:03 AM PDT 8:47 PM PDT
Nautical Twilight 4:20 AM PDT 9:31 PM PDT
Astronomical Twilight 3:29 AM PDT 10:21 PM PDT
Moon 2:31 AM PDT (5/3) 1:48 PM PDT (5/3)
Length of Visible Light 15h 43m
Length of Day
14h 34m
Waning Crescent, 36% of the Moon is Illuminated
May 3
Waning Crescent
May 9
New
May 17
First Quarter
May 24
Full
May 31
Last Quarter

Hourly Weather History & Observations

Time (PDT) Temp. Dew Point Humidity Pressure Visibility Wind Dir Wind Speed Gust Speed Precip Events Conditions
12:53 AM 57.9 °F 32.0 °F 37% 30.23 in 10.0 mi WNW 3.5 mph - N/A   Mostly Cloudy
1:53 AM 60.1 °F 30.0 °F 32% 30.23 in 10.0 mi North 9.2 mph - N/A   Overcast
2:53 AM 59.0 °F 34.0 °F 39% 30.25 in 10.0 mi North 12.7 mph - N/A   Overcast
3:53 AM 57.0 °F 35.1 °F 44% 30.26 in 10.0 mi North 18.4 mph - N/A   Clear
4:53 AM 55.0 °F 37.0 °F 51% 30.27 in 10.0 mi NNW 21.9 mph - N/A   Clear
5:53 AM 55.0 °F 37.0 °F 51% 30.27 in 10.0 mi NNE 16.1 mph - N/A   Clear
6:53 AM 57.9 °F 36.0 °F 44% 30.29 in 10.0 mi North 16.1 mph - N/A   Clear
7:53 AM 61.0 °F 36.0 °F 39% 30.29 in 10.0 mi North 23.0 mph 29.9 mph N/A   Clear
8:53 AM 64.0 °F 35.1 °F 34% 30.28 in 10.0 mi North 20.7 mph 26.5 mph N/A   Clear
9:53 AM 66.9 °F 34.0 °F 30% 30.27 in 10.0 mi North 20.7 mph 27.6 mph N/A   Clear
10:53 AM 70.0 °F 32.0 °F 25% 30.26 in 10.0 mi North 24.2 mph 33.4 mph N/A   Clear
11:53 AM 73.0 °F 30.9 °F 21% 30.25 in 10.0 mi NNE 21.9 mph 31.1 mph N/A   Clear
12:53 PM 73.9 °F 28.9 °F 19% 30.23 in 10.0 mi NNE 21.9 mph 33.4 mph N/A   Clear
1:53 PM 75.0 °F 30.0 °F 19% 30.21 in 10.0 mi North 18.4 mph 28.8 mph N/A   Clear
2:53 PM 75.9 °F 27.0 °F 16% 30.19 in 10.0 mi North 20.7 mph 29.9 mph N/A   Clear
3:53 PM 77.0 °F 26.1 °F 15% 30.17 in 10.0 mi North 20.7 mph 27.6 mph N/A   Clear
4:53 PM 77.0 °F 23.0 °F 13% 30.16 in 10.0 mi North 19.6 mph 27.6 mph N/A   Clear
5:53 PM 75.9 °F 27.0 °F 16% 30.15 in 10.0 mi North 15.0 mph - N/A   Clear
6:53 PM 75.0 °F 30.9 °F 20% 30.14 in 10.0 mi North 9.2 mph - N/A   Clear
7:53 PM 70.0 °F 33.1 °F 26% 30.14 in 10.0 mi NNW 12.7 mph - N/A   Clear
8:53 PM 66.9 °F 27.0 °F 22% 30.15 in 10.0 mi North 12.7 mph - N/A   Clear
9:53 PM 62.1 °F 28.9 °F 29% 30.17 in 10.0 mi NNE 15.0 mph - N/A   Clear
10:53 PM 61.0 °F 30.0 °F 31% 30.17 in 10.0 mi North 11.5 mph - N/A   Clear
11:53 PM 60.1 °F 30.9 °F 33% 30.17 in 10.0 mi North 13.8 mph - N/A   Clear